Torna al catalogo

OPS 4682 DEB

LostPO
NORAD 38371·DEBRIS·🇺🇸 United States

Lanciato Apr 3, 1965 da Vandenberg Space Force Base

Loading…

Prossimi Passaggi (prossime 24 ore)

TLE

ObsoletoSource: Space-Track

Epoca: Jan 31, 2016, 06:56 UTC

1 38371U 65027BY  16031.28914343 +.00001315 +00000-0 +40727-2 0  9999
2 38371 090.3013 276.6805 0030766 021.0140 340.9188 13.04410835613095

Traccia OPS 4682 DEB in tempo reale con AllMySat

Download on the App Store